sat.trackr.live / text

‹ back to catalog

STARLINK-30556

NORAD 58031 · 2023-156D

PAYLOAD ACTIVE UNKNOWN

§ Identity

Operator
Country
US
Launch date
2023-10-09
Launch site
AFWTR
Launch vehicle
Mass (kg)
RCS (m²)

Purposes: comms

External: N2YO · Heavens-Above · Gunter

§ Orbital elements

Epoch: 2026-05-25T03:17:56.854176Z

Period
93.85 min
Inclination
53.1619°
Eccentricity
0.0001259
Mean motion
15.34393741 rev/d
Perigee alt
461.9 km
Apogee alt
463.6 km
Semi-major
6,840.9 km
B*
3.7129e-5
RAAN
92.7040°
Arg perigee
93.7340°
Mean anomaly
266.3807°
Rev number
14,787

§ Raw data

STARLINK-305561 58031U 23156D   26145.13746359  .00000878  00000+0  37129-4 0  99982 58031  53.1619  92.7040 0001259  93.7340 266.3807 15.34393741147878

JSON: /api/v1/satellites/58031 · /tle

For live sub-satellite position, see the globe view (requires WebGL).

§ Visibility from observer

Set your observer location to see the next 7 days of passes ≥ 10°. The values pass through the URL so the page stays shareable.

No JS? Fill the form by hand. The geolocation button needs JavaScript.